QPF
0.00 0.00 0.01 0.01 0.01 0.01 0.01 0.01 0.01 0.01 0.01 0.01 0.01 0.04 0.03 0.02 0.02 0.01 0.02 0.01 0.03 0.04 0.04 0.04 0.03 0.02 0.01 0.01 0.01 0.01 0.01 0.02 0.03 0.03 0.03 0.03 0.02 0.02 0.04 0.04 0.03 0.03 0.02 0.02
0.00 0.00 0.01 0.01 0.01 0.01 0.01 0.01 0.01 0.01 0.01 0.01 0.01 0.01 0.01 0.02 0.01 0.01 0.01 0.01 0.01 0.03 0.06 0.05 0.04 0.02 0.01 0.01 0.01 0.00 0.01 0.01 0.01 0.01 0.02 0.02 0.03 0.02 0.03 0.02 0.02 0.01 0.02 0.03
0.00 0.00 0.01 0.01 0.01 0.01 0.01 0.00 0.00 0.01 0.01 0.01 0.01 0.01 0.01 0.01 0.01 0.00 0.00 0.01 0.01 0.02 0.04 0.05 0.04 0.03 0.04 0.03 0.02 0.02 0.02 0.01 0.01 0.01 0.01 0.02 0.02 0.02 0.02 0.03 0.02 0.02 0.02 0.03
0.00 0.00 0.01 0.01 0.01 0.01 0.01 0.01 0.01 0.01 0.01 0.02 0.01 0.02 0.02 0.02 0.01 0.01 0.01 0.02 0.02 0.02 0.03 0.06 0.05 0.04 0.04 0.04 0.04 0.04 0.04 0.05 0.06 0.05 0.04 0.05 0.04 0.02 0.02 0.03 0.03 0.02 0.02 0.02
0.00 0.00 0.00 0.01 0.02 0.01 0.00 0.01 0.01 0.01 0.03 0.04 0.04 0.04 0.03 0.03 0.03 0.03 0.02 0.01 0.02 0.02 0.03 0.06 0.06 0.04 0.03 0.04 0.06 0.06 0.05 0.05 0.07 0.08 0.06 0.05 0.04 0.02 0.03 0.04 0.03 0.02 0.02 0.03
0.01 0.01 0.00 0.00 0.00 0.00 0.01 0.01 0.02 0.02 0.02 0.03 0.03 0.06 0.05 0.03 0.02 0.08 0.09 0.04 0.02 0.02 0.02 0.02 0.05 0.07 0.06 0.06 0.07 0.06 0.06 0.05 0.05 0.04 0.04 0.04 0.03 0.03 0.04 0.05 0.04 0.03 0.04 0.05
0.01 0.01 0.01 0.00 0.00 0.00 0.01 0.02 0.02 0.02 0.02 0.02 0.02 0.03 0.05 0.04 0.03 0.05 0.04 0.02 0.01 0.02 0.02 0.01 0.01 0.04 0.09 0.09 0.09 0.08 0.07 0.06 0.05 0.05 0.05 0.05 0.05 0.05 0.05 0.05 0.05 0.06 0.07 0.07
0.01 0.01 0.02 0.01 0.01 0.01 0.01 0.02 0.03 0.02 0.02 0.02 0.02 0.02 0.04 0.04 0.04 0.06 0.04 0.02 0.01 0.01 0.01 0.02 0.01 0.02 0.04 0.06 0.06 0.07 0.08 0.07 0.06 0.06 0.07 0.06 0.06 0.06 0.06 0.06 0.06 0.08 0.08 0.08
0.04 0.03 0.01 0.02 0.02 0.02 0.02 0.01 0.01 0.01 0.01 0.01 0.02 0.02 0.03 0.03 0.03 0.02 0.01 0.01 0.00 0.00 0.01 0.01 0.02 0.02 0.02 0.03 0.03 0.04 0.06 0.06 0.05 0.06 0.07 0.05 0.05 0.05 0.07 0.07 0.08 0.09 0.09 0.10
0.03 0.04 0.03 0.02 0.02 0.02 0.01 0.01 0.01 0.00 0.00 0.00 0.01 0.01 0.01 0.02 0.02 0.02 0.01 0.00 0.00 0.00 0.01 0.01 0.01 0.02 0.02 0.03 0.05 0.05 0.06 0.05 0.04 0.04 0.04 0.04 0.03 0.04 0.05 0.06 0.06 0.07 0.07 0.07
0.02 0.03 0.03 0.02 0.01 0.02 0.02 0.01 0.01 0.01 0.00 0.01 0.01 0.01 0.01 0.01 0.02 0.02 0.01 0.00 0.00 0.00 0.01 0.01 0.01 0.02 0.02 0.03 0.05 0.07 0.08 0.08 0.06 0.05 0.04 0.04 0.03 0.03 0.05 0.06 0.06 0.06 0.05 0.05
0.02 0.02 0.02 0.02 0.01 0.02 0.03 0.03 0.02 0.01 0.01 0.01 0.01 0.01 0.03 0.04 0.04 0.03 0.01 0.01 0.00 0.01 0.01 0.01 0.02 0.03 0.04 0.06 0.07 0.09 0.09 0.08 0.08 0.07 0.06 0.05 0.05 0.04 0.05 0.06 0.07 0.07 0.07 0.06
0.03 0.02 0.03 0.03 0.03 0.02 0.03 0.03 0.03 0.02 0.01 0.01 0.01 0.02 0.04 0.04 0.04 0.03 0.02 0.01 0.01 0.01 0.02 0.02 0.03 0.05 0.06 0.05 0.07 0.09 0.10 0.08 0.08 0.07 0.07 0.07 0.06 0.06 0.06 0.08 0.08 0.07 0.07 0.07
0.04 0.04 0.05 0.04 0.05 0.03 0.03 0.03 0.02 0.02 0.01 0.01 0.02 0.04 0.04 0.03 0.03 0.03 0.04 0.04 0.03 0.03 0.04 0.05 0.07 0.07 0.06 0.06 0.06 0.06 0.07 0.08 0.08 0.08 0.08 0.08 0.08 0.07 0.06 0.06 0.06 0.06 0.08 0.09
0.04 0.05 0.08 0.07 0.06 0.06 0.05 0.03 0.02 0.01 0.01 0.01 0.02 0.04 0.03 0.03 0.03 0.03 0.03 0.03 0.03 0.04 0.05 0.08 0.09 0.07 0.07 0.08 0.09 0.09 0.09 0.09 0.08 0.08 0.08 0.09 0.09 0.10 0.09 0.08 0.08 0.07 0.07 0.06
0.02 0.03 0.05 0.07 0.06 0.07 0.07 0.05 0.04 0.03 0.02 0.03 0.04 0.04 0.04 0.03 0.04 0.05 0.04 0.05 0.05 0.05 0.05 0.05 0.05 0.04 0.04 0.06 0.08 0.09 0.11 0.11 0.11 0.10 0.10 0.11 0.10 0.10 0.09 0.10 0.09 0.09 0.10 0.10
0.03 0.02 0.02 0.03 0.05 0.07 0.07 0.07 0.04 0.03 0.03 0.03 0.02 0.02 0.02 0.03 0.04 0.06 0.07 0.07 0.06 0.06 0.05 0.04 0.04 0.05 0.07 0.09 0.11 0.12 0.13 0.14 0.14 0.12 0.11 0.11 0.12 0.11 0.10 0.11 0.11 0.12 0.13 0.13
0.03 0.03 0.03 0.03 0.04 0.06 0.05 0.05 0.04 0.03 0.03 0.03 0.03 0.03 0.03 0.04 0.06 0.08 0.09 0.09 0.08 0.08 0.07 0.06 0.05 0.06 0.10 0.12 0.13 0.15 0.16 0.15 0.14 0.14 0.13 0.12 0.11 0.10 0.07 0.07 0.06 0.06 0.05 0.05
0.04 0.05 0.04 0.04 0.04 0.05 0.06 0.05 0.05 0.05 0.05 0.04 0.03 0.03 0.03 0.04 0.05 0.06 0.08 0.10 0.10 0.10 0.09 0.08 0.07 0.06 0.06 0.05 0.05 0.06 0.08 0.10 0.08 0.08 0.08 0.08 0.08 0.07 0.06 0.05 0.04 0.04 0.04 0.03
0.05 0.07 0.06 0.05 0.05 0.07 0.12 0.07 0.06 0.05 0.05 0.04 0.03 0.03 0.03 0.03 0.05 0.06 0.08 0.10 0.10 0.10 0.09 0.08 0.07 0.05 0.04 0.03 0.04 0.04 0.05 0.09 0.10 0.06 0.05 0.05 0.05 0.05 0.04 0.04 0.03 0.03 0.03 0.03
0.06 0.08 0.08 0.07 0.08 0.08 0.14 0.10 0.06 0.05 0.05 0.04 0.04 0.03 0.03 0.04 0.05 0.06 0.07 0.08 0.09 0.09 0.10 0.09 0.07 0.06 0.04 0.03 0.03 0.03 0.02 0.04 0.08 0.09 0.06 0.05 0.04 0.04 0.04 0.04 0.04 0.03 0.03 0.03
0.08 0.11 0.10 0.09 0.09 0.08 0.11 0.10 0.07 0.06 0.04 0.03 0.03 0.02 0.02 0.03 0.04 0.04 0.05 0.05 0.06 0.07 0.07 0.07 0.07 0.06 0.05 0.04 0.04 0.03 0.03 0.03 0.04 0.04 0.03 0.04 0.05 0.05 0.05 0.05 0.05 0.04 0.04 0.03
0.11 0.14 0.12 0.09 0.09 0.08 0.11 0.10 0.07 0.06 0.04 0.03 0.03 0.03 0.03 0.03 0.03 0.03 0.03 0.03 0.03 0.04 0.04 0.04 0.04 0.05 0.05 0.05 0.04 0.04 0.04 0.03 0.02 0.02 0.02 0.01 0.02 0.04 0.05 0.04 0.04 0.04 0.04 0.04
0.10 0.13 0.12 0.08 0.07 0.08 0.13 0.12 0.07 0.04 0.03 0.03 0.03 0.03 0.02 0.02 0.02 0.03 0.03 0.03 0.03 0.03 0.03 0.03 0.03 0.05 0.06 0.04 0.03 0.03 0.02 0.02 0.02 0.02 0.02 0.02 0.01 0.02 0.04 0.04 0.04 0.04 0.03 0.03
0.07 0.09 0.08 0.05 0.05 0.08 0.16 0.12 0.07 0.04 0.03 0.03 0.04 0.03 0.02 0.02 0.02 0.02 0.02 0.02 0.02 0.02 0.02 0.02 0.02 0.03 0.03 0.03 0.04 0.04 0.03 0.02 0.02 0.02 0.02 0.01 0.01 0.01 0.02 0.04 0.04 0.04 0.03 0.03
0.06 0.06 0.04 0.05 0.05 0.08 0.14 0.10 0.07 0.06 0.05 0.05 0.05 0.04 0.03 0.02 0.02 0.02 0.02 0.01 0.02 0.02 0.03 0.03 0.04 0.04 0.04 0.07 0.07 0.05 0.04 0.03 0.02 0.01 0.01 0.01 0.01 0.01 0.01 0.02 0.04 0.05 0.04 0.03
0.04 0.04 0.04 0.05 0.06 0.09 0.14 0.11 0.07 0.06 0.05 0.05 0.05 0.05 0.03 0.02 0.03 0.03 0.03 0.02 0.02 0.02 0.03 0.04 0.04 0.04 0.06 0.06 0.06 0.07 0.06 0.03 0.02 0.02 0.02 0.01 0.01 0.01 0.01 0.01 0.01 0.02 0.02 0.02
MSLP
1011.43 1012.16 1012.75 1013.17 1013.40 1013.43 1013.26 1012.89 1012.36 1011.69 1010.95 1010.20 1009.51 1008.94 1008.53 1008.29 1008.20 1008.24 1008.32 1008.39 1008.38 1008.23 1007.95 1007.53 1007.04 1006.52 1006.07 1005.74 1005.58 1005.61 1005.81 1006.14 1006.54 1006.95 1007.30 1007.55 1007.67 1007.68 1007.60 1007.46 1007.32 1007.22 1007.19 1007.24
1011.50 1012.16 1012.60 1012.83 1012.83 1012.64 1012.28 1011.79 1011.23 1010.64 1010.06 1009.54 1009.13 1008.84 1008.69 1008.65 1008.70 1008.81 1008.91 1008.96 1008.92 1008.76 1008.50 1008.15 1007.75 1007.36 1007.04 1006.82 1006.73 1006.79 1006.96 1007.20 1007.49 1007.75 1007.95 1008.06 1008.07 1008.00 1007.87 1007.71 1007.56 1007.45 1007.42 1007.46
1011.58 1012.11 1012.37 1012.38 1012.16 1011.76 1011.25 1010.69 1010.14 1009.63 1009.22 1008.93 1008.77 1008.72 1008.78 1008.91 1009.07 1009.22 1009.33 1009.36 1009.31 1009.17 1008.96 1008.70 1008.44 1008.21 1008.04 1007.96 1007.97 1008.06 1008.21 1008.39 1008.56 1008.69 1008.75 1008.74 1008.65 1008.51 1008.35 1008.18 1008.04 1007.96 1007.93 1007.98
1011.62 1011.97 1012.02 1011.82 1011.40 1010.84 1010.23 1009.63 1009.11 1008.71 1008.47 1008.38 1008.43 1008.59 1008.82 1009.07 1009.30 1009.48 1009.60 1009.63 1009.58 1009.48 1009.34 1009.20 1009.09 1009.02 1009.01 1009.07 1009.18 1009.32 1009.46 1009.59 1009.66 1009.68 1009.63 1009.52 1009.36 1009.18 1009.00 1008.85 1008.75 1008.70 1008.70 1008.76
1011.50 1011.64 1011.50 1011.11 1010.54 1009.88 1009.21 1008.62 1008.17 1007.90 1007.81 1007.90 1008.13 1008.46 1008.82 1009.16 1009.46 1009.67 1009.79 1009.83 1009.81 1009.76 1009.71 1009.69 1009.72 1009.80 1009.94 1010.12 1010.31 1010.48 1010.62 1010.70 1010.70 1010.63 1010.50 1010.32 1010.13 1009.94 1009.78 1009.67 1009.61 1009.61 1009.65 1009.72
1011.09 1011.03 1010.72 1010.20 1009.54 1008.84 1008.19 1007.67 1007.32 1007.19 1007.26 1007.52 1007.91 1008.37 1008.84 1009.26 1009.61 1009.86 1010.01 1010.08 1010.10 1010.12 1010.15 1010.24 1010.38 1010.58 1010.82 1011.08 1011.32 1011.52 1011.64 1011.67 1011.62 1011.49 1011.31 1011.10 1010.89 1010.72 1010.60 1010.53 1010.53 1010.57 1010.65 1010.73
1010.27 1010.06 1009.64 1009.06 1008.39 1007.74 1007.18 1006.78 1006.58 1006.61 1006.85 1007.26 1007.78 1008.36 1008.93 1009.42 1009.83 1010.12 1010.32 1010.44 1010.52 1010.60 1010.72 1010.88 1011.10 1011.38 1011.68 1011.97 1012.22 1012.40 1012.50 1012.49 1012.39 1012.23 1012.02 1011.80 1011.61 1011.47 1011.39 1011.38 1011.42 1011.50 1011.60 1011.68
1009.03 1008.73 1008.27 1007.72 1007.14 1006.62 1006.22 1005.99 1005.98 1006.19 1006.58 1007.14 1007.79 1008.47 1009.11 1009.68 1010.15 1010.51 1010.77 1010.95 1011.10 1011.25 1011.42 1011.64 1011.91 1012.20 1012.51 1012.79 1013.01 1013.15 1013.20 1013.15 1013.02 1012.83 1012.62 1012.41 1012.25 1012.14 1012.10 1012.13 1012.20 1012.30 1012.40 1012.48
1007.44 1007.13 1006.73 1006.30 1005.88 1005.56 1005.37 1005.37 1005.56 1005.94 1006.50 1007.18 1007.93 1008.69 1009.41 1010.05 1010.58 1011.01 1011.34 1011.59 1011.81 1012.02 1012.24 1012.48 1012.75 1013.03 1013.30 1013.53 1013.69 1013.77 1013.77 1013.68 1013.52 1013.32 1013.12 1012.93 1012.79 1012.72 1012.70 1012.75 1012.83 1012.93 1013.01 1013.06
1005.71 1005.46 1005.20 1004.95 1004.76 1004.69 1004.75 1004.98 1005.37 1005.93 1006.61 1007.39 1008.21 1009.02 1009.79 1010.48 1011.08 1011.57 1011.97 1012.30 1012.58 1012.84 1013.09 1013.34 1013.58 1013.82 1014.02 1014.17 1014.26 1014.28 1014.22 1014.09 1013.92 1013.72 1013.54 1013.37 1013.26 1013.21 1013.20 1013.24 1013.31 1013.38 1013.43 1013.44
1004.08 1003.96 1003.87 1003.86 1003.94 1004.12 1004.44 1004.89 1005.46 1006.15 1006.92 1007.76 1008.61 1009.44 1010.23 1010.95 1011.58 1012.13 1012.60 1012.99 1013.33 1013.62 1013.89 1014.12 1014.33 1014.50 1014.63 1014.71 1014.72 1014.67 1014.57 1014.43 1014.25 1014.07 1013.91 1013.78 1013.69 1013.64 1013.63 1013.65 1013.67 1013.70 1013.70 1013.66
1002.78 1002.83 1002.96 1003.19 1003.52 1003.96 1004.50 1005.13 1005.84 1006.61 1007.43 1008.26 1009.10 1009.91 1010.68 1011.39 1012.04 1012.62 1013.13 1013.57 1013.96 1014.28 1014.55 1014.77 1014.94 1015.06 1015.12 1015.13 1015.08 1014.99 1014.87 1014.72 1014.56 1014.42 1014.29 1014.18 1014.11 1014.06 1014.03 1014.01 1013.99 1013.95 1013.89 1013.80
1001.98 1002.19 1002.53 1002.99 1003.55 1004.20 1004.92 1005.68 1006.47 1007.27 1008.07 1008.87 1009.64 1010.39 1011.11 1011.79 1012.42 1013.01 1013.55 1014.03 1014.44 1014.79 1015.07 1015.27 1015.41 1015.48 1015.49 1015.45 1015.37 1015.26 1015.14 1015.01 1014.90 1014.79 1014.70 1014.63 1014.58 1014.52 1014.47 1014.40 1014.32 1014.22 1014.10 1013.96
1001.68 1002.05 1002.57 1003.22 1003.97 1004.78 1005.62 1006.46 1007.28 1008.06 1008.81 1009.53 1010.21 1010.87 1011.51 1012.14 1012.75 1013.33 1013.88 1014.37 1014.81 1015.17 1015.46 1015.66 1015.77 1015.82 1015.80 1015.74 1015.65 1015.54 1015.44 1015.35 1015.28 1015.23 1015.19 1015.16 1015.12 1015.06 1014.98 1014.87 1014.73 1014.56 1014.37 1014.18
1001.81 1002.31 1002.97 1003.76 1004.64 1005.56 1006.47 1007.34 1008.15 1008.89 1009.57 1010.20 1010.78 1011.35 1011.91 1012.48 1013.06 1013.62 1014.17 1014.68 1015.14 1015.51 1015.80 1016.00 1016.11 1016.14 1016.11 1016.04 1015.96 1015.88 1015.81 1015.77 1015.75 1015.76 1015.76 1015.77 1015.74 1015.68 1015.58 1015.42 1015.23 1015.00 1014.75 1014.50
1002.20 1002.79 1003.55 1004.44 1005.40 1006.38 1007.33 1008.21 1009.00 1009.69 1010.30 1010.84 1011.35 1011.84 1012.35 1012.87 1013.41 1013.97 1014.52 1015.04 1015.51 1015.89 1016.19 1016.39 1016.50 1016.53 1016.49 1016.43 1016.36 1016.30 1016.27 1016.28 1016.31 1016.36 1016.41 1016.44 1016.43 1016.37 1016.24 1016.04 1015.80 1015.51 1015.20 1014.89
1002.66 1003.31 1004.14 1005.09 1006.11 1007.13 1008.09 1008.97 1009.73 1010.40 1010.96 1011.46 1011.92 1012.37 1012.84 1013.34 1013.88 1014.43 1014.99 1015.52 1016.00 1016.39 1016.70 1016.90 1017.00 1017.03 1017.00 1016.94 1016.88 1016.84 1016.84 1016.87 1016.94 1017.02 1017.10 1017.14 1017.14 1017.06 1016.91 1016.68 1016.39 1016.05 1015.68 1015.31
1003.08 1003.77 1004.64 1005.63 1006.67 1007.71 1008.69 1009.57 1010.34 1010.99 1011.55 1012.04 1012.49 1012.94 1013.41 1013.92 1014.47 1015.04 1015.61 1016.15 1016.64 1017.05 1017.35 1017.55 1017.65 1017.68 1017.64 1017.58 1017.52 1017.49 1017.49 1017.53 1017.61 1017.70 1017.79 1017.83 1017.82 1017.73 1017.55 1017.28 1016.94 1016.55 1016.12 1015.68
1003.40 1004.13 1005.02 1006.03 1007.09 1008.15 1009.14 1010.03 1010.82 1011.49 1012.07 1012.59 1013.07 1013.56 1014.06 1014.60 1015.18 1015.77 1016.36 1016.92 1017.41 1017.82 1018.12 1018.32 1018.41 1018.43 1018.38 1018.31 1018.24 1018.19 1018.18 1018.22 1018.28 1018.36 1018.42 1018.45 1018.41 1018.29 1018.08 1017.78 1017.40 1016.95 1016.46 1015.96
1003.70 1004.45 1005.37 1006.39 1007.46 1008.51 1009.51 1010.43 1011.24 1011.95 1012.57 1013.14 1013.67 1014.21 1014.76 1015.34 1015.95 1016.57 1017.17 1017.74 1018.23 1018.64 1018.94 1019.12 1019.21 1019.21 1019.15 1019.06 1018.98 1018.91 1018.87 1018.88 1018.91 1018.95 1018.99 1018.98 1018.90 1018.75 1018.49 1018.15 1017.72 1017.22 1016.68 1016.11
1004.11 1004.88 1005.80 1006.81 1007.87 1008.92 1009.92 1010.84 1011.67 1012.41 1013.08 1013.69 1014.28 1014.86 1015.45 1016.07 1016.70 1017.33 1017.95 1018.51 1019.00 1019.40 1019.69 1019.87 1019.95 1019.94 1019.88 1019.78 1019.67 1019.58 1019.52 1019.49 1019.48 1019.48 1019.46 1019.40 1019.28 1019.08 1018.79 1018.40 1017.93 1017.38 1016.78 1016.16
1004.73 1005.52 1006.43 1007.42 1008.45 1009.47 1010.44 1011.35 1012.17 1012.92 1013.61 1014.25 1014.87 1015.48 1016.10 1016.73 1017.36 1017.99 1018.60 1019.15 1019.63 1020.02 1020.30 1020.48 1020.56 1020.55 1020.49 1020.39 1020.28 1020.18 1020.09 1020.03 1019.98 1019.93 1019.86 1019.75 1019.58 1019.33 1018.99 1018.57 1018.05 1017.46 1016.82 1016.14
1005.65 1006.42 1007.31 1008.25 1009.22 1010.18 1011.10 1011.96 1012.76 1013.49 1014.17 1014.81 1015.43 1016.04 1016.65 1017.27 1017.89 1018.50 1019.07 1019.60 1020.06 1020.43 1020.71 1020.89 1020.99 1021.01 1020.96 1020.88 1020.79 1020.69 1020.59 1020.51 1020.43 1020.34 1020.23 1020.07 1019.85 1019.55 1019.17 1018.70 1018.15 1017.53 1016.85 1016.14
1006.82 1007.57 1008.40 1009.27 1010.16 1011.04 1011.87 1012.67 1013.40 1014.09 1014.73 1015.34 1015.93 1016.52 1017.10 1017.68 1018.26 1018.83 1019.37 1019.86 1020.29 1020.65 1020.93 1021.13 1021.25 1021.30 1021.30 1021.26 1021.20 1021.12 1021.04 1020.95 1020.85 1020.74 1020.58 1020.38 1020.12 1019.78 1019.36 1018.86 1018.28 1017.63 1016.93 1016.20
1008.12 1008.83 1009.59 1010.37 1011.16 1011.93 1012.68 1013.38 1014.05 1014.67 1015.26 1015.83 1016.37 1016.91 1017.45 1017.98 1018.51 1019.02 1019.51 1019.96 1020.37 1020.72 1021.00 1021.22 1021.38 1021.48 1021.54 1021.55 1021.54 1021.51 1021.45 1021.37 1021.27 1021.14 1020.96 1020.73 1020.43 1020.05 1019.60 1019.07 1018.46 1017.80 1017.09 1016.34
1009.39 1010.04 1010.71 1011.40 1012.08 1012.75 1013.40 1014.02 1014.62 1015.18 1015.72 1016.24 1016.75 1017.24 1017.73 1018.21 1018.68 1019.14 1019.58 1019.99 1020.36 1020.70 1020.99 1021.24 1021.44 1021.60 1021.72 1021.80 1021.85 1021.86 1021.85 1021.80 1021.70 1021.56 1021.36 1021.10 1020.77 1020.37 1019.88 1019.33 1018.71 1018.04 1017.32 1016.57
1010.45 1011.03 1011.61 1012.21 1012.80 1013.38 1013.95 1014.51 1015.06 1015.58 1016.09 1016.58 1017.06 1017.52 1017.97 1018.41 1018.83 1019.24 1019.63 1020.01 1020.36 1020.68 1020.98 1021.26 1021.50 1021.71 1021.89 1022.03 1022.14 1022.21 1022.23 1022.21 1022.13 1021.99 1021.78 1021.49 1021.14 1020.70 1020.20 1019.63 1019.00 1018.31 1017.59 1016.85
Thickness
5773 5782 5785 5783 5785 5786 5775 5765 5753 5758 5763 5774 5781 5786 5790 5792 5791 5790 5789 5788 5787 5785 5784 5783 5784 5785 5784 5782 5781 5779 5774 5771 5768 5766 5763 5760 5757 5754 5752 5750 5748 5745 5741 5739
5764 5777 5779 5775 5781 5782 5778 5774 5768 5765 5764 5781 5784 5785 5783 5784 5784 5782 5781 5782 5783 5781 5780 5779 5778 5778 5778 5776 5775 5773 5769 5766 5764 5762 5759 5755 5752 5750 5747 5744 5742 5739 5737 5734
5740 5761 5763 5752 5770 5773 5770 5774 5769 5756 5765 5776 5774 5777 5779 5779 5778 5778 5778 5778 5777 5776 5775 5774 5773 5773 5771 5770 5769 5766 5763 5760 5758 5756 5752 5750 5748 5744 5741 5738 5736 5733 5731 5728
5729 5738 5724 5750 5779 5781 5772 5771 5774 5772 5773 5774 5775 5778 5780 5780 5776 5774 5773 5773 5773 5772 5770 5769 5768 5767 5766 5764 5761 5759 5757 5755 5752 5749 5746 5744 5741 5738 5736 5733 5730 5727 5724 5722
5715 5714 5726 5752 5769 5771 5761 5755 5771 5768 5768 5770 5771 5768 5767 5775 5776 5773 5771 5770 5769 5768 5766 5764 5763 5761 5759 5756 5753 5751 5749 5747 5746 5744 5741 5737 5734 5732 5731 5727 5724 5721 5718 5715
5712 5710 5709 5738 5767 5778 5764 5741 5764 5766 5764 5764 5761 5744 5751 5767 5770 5768 5767 5765 5762 5761 5759 5756 5755 5754 5750 5747 5744 5742 5742 5741 5740 5738 5735 5733 5731 5728 5725 5722 5718 5714 5711 5709
5707 5706 5718 5749 5768 5767 5732 5733 5759 5763 5762 5760 5754 5754 5759 5764 5763 5762 5760 5758 5757 5753 5749 5747 5747 5744 5740 5738 5737 5737 5736 5734 5732 5730 5729 5727 5725 5722 5718 5715 5710 5707 5703 5701
5701 5700 5710 5751 5754 5743 5740 5753 5757 5758 5759 5757 5756 5757 5755 5755 5754 5752 5749 5749 5747 5744 5740 5739 5738 5735 5730 5729 5731 5731 5728 5725 5722 5720 5721 5720 5716 5714 5710 5707 5702 5698 5695 5692
5708 5711 5733 5747 5747 5751 5752 5750 5752 5752 5755 5754 5751 5749 5748 5746 5745 5743 5741 5739 5738 5735 5731 5730 5729 5727 5722 5722 5722 5721 5719 5716 5714 5712 5711 5711 5708 5705 5701 5698 5694 5691 5687 5684
5708 5717 5730 5738 5744 5748 5751 5749 5752 5753 5752 5751 5746 5744 5741 5739 5736 5734 5733 5730 5728 5724 5720 5719 5720 5719 5716 5715 5714 5712 5710 5707 5704 5702 5701 5701 5699 5697 5694 5690 5687 5684 5680 5677
5700 5710 5720 5728 5734 5740 5744 5747 5747 5747 5748 5745 5741 5736 5733 5730 5728 5726 5725 5723 5720 5716 5712 5710 5711 5710 5709 5707 5704 5701 5699 5697 5696 5693 5691 5689 5687 5686 5686 5685 5683 5680 5676 5673
5690 5703 5705 5713 5726 5733 5735 5736 5738 5738 5736 5736 5734 5729 5726 5722 5720 5718 5716 5714 5710 5707 5705 5703 5702 5700 5700 5698 5696 5692 5689 5687 5685 5682 5681 5679 5677 5676 5677 5676 5676 5674 5672 5668
5700 5707 5709 5714 5721 5726 5726 5730 5733 5731 5728 5724 5723 5722 5718 5714 5711 5709 5707 5705 5702 5699 5697 5696 5694 5692 5691 5689 5686 5683 5680 5679 5677 5674 5672 5670 5669 5668 5665 5664 5664 5663 5661 5659
5700 5702 5699 5705 5709 5716 5719 5722 5725 5723 5722 5720 5716 5713 5709 5705 5703 5700 5698 5696 5694 5691 5689 5687 5685 5683 5683 5681 5678 5675 5673 5672 5669 5666 5664 5662 5661 5660 5657 5655 5652 5650 5649 5647
5692 5695 5694 5698 5702 5706 5709 5711 5710 5709 5710 5709 5708 5704 5701 5697 5694 5692 5690 5688 5685 5682 5680 5678 5676 5675 5674 5672 5670 5667 5664 5662 5660 5658 5656 5654 5652 5649 5647 5646 5643 5641 5638 5636
5684 5687 5689 5691 5692 5695 5697 5698 5696 5697 5699 5699 5698 5696 5694 5691 5688 5685 5682 5680 5676 5672 5671 5668 5667 5667 5666 5663 5661 5658 5656 5655 5653 5650 5647 5645 5643 5641 5638 5635 5633 5631 5629 5627
5673 5673 5676 5678 5679 5682 5685 5687 5688 5689 5690 5690 5689 5688 5685 5682 5678 5675 5672 5671 5668 5666 5664 5661 5659 5658 5657 5654 5652 5649 5647 5645 5645 5641 5638 5636 5634 5632 5629 5626 5624 5622 5620 5619
5671 5672 5673 5673 5673 5674 5676 5678 5680 5681 5681 5683 5682 5679 5675 5672 5668 5666 5664 5662 5658 5656 5654 5653 5651 5648 5647 5645 5643 5641 5638 5636 5634 5632 5629 5627 5625 5623 5621 5618 5617 5614 5612 5610
5666 5667 5670 5670 5671 5671 5671 5671 5673 5673 5674 5674 5672 5668 5665 5663 5660 5658 5655 5652 5648 5644 5644 5644 5643 5640 5637 5636 5635 5633 5630 5628 5626 5623 5621 5619 5617 5615 5613 5610 5608 5607 5605 5603
5659 5661 5663 5664 5665 5665 5665 5666 5666 5664 5664 5664 5662 5659 5656 5653 5651 5649 5646 5642 5639 5638 5637 5635 5634 5632 5629 5628 5627 5624 5622 5620 5618 5615 5613 5611 5609 5607 5605 5603 5601 5600 5598 5597
5650 5652 5654 5655 5655 5657 5658 5658 5657 5656 5655 5655 5653 5650 5647 5645 5642 5640 5636 5632 5631 5631 5629 5628 5625 5623 5622 5620 5619 5617 5615 5612 5610 5608 5605 5603 5601 5599 5597 5595 5594 5593 5591 5590
5642 5643 5645 5646 5647 5647 5647 5648 5649 5648 5647 5645 5644 5642 5639 5636 5633 5630 5628 5626 5625 5624 5622 5619 5617 5615 5614 5612 5610 5608 5606 5604 5602 5600 5598 5596 5594 5592 5590 5589 5587 5586 5584 5583
5634 5635 5636 5636 5636 5636 5637 5638 5639 5638 5637 5636 5635 5633 5631 5629 5626 5623 5619 5619 5618 5616 5613 5611 5609 5607 5606 5603 5601 5599 5598 5597 5595 5593 5591 5590 5588 5586 5584 5582 5581 5580 5578 5576
5624 5625 5626 5627 5627 5627 5625 5627 5628 5628 5628 5627 5626 5626 5624 5621 5619 5618 5616 5615 5613 5610 5607 5604 5602 5600 5598 5595 5594 5592 5591 5590 5589 5587 5585 5583 5581 5580 5578 5576 5574 5573 5571 5570
5616 5617 5618 5618 5617 5617 5618 5619 5619 5619 5618 5617 5617 5617 5617 5616 5612 5610 5609 5607 5605 5603 5599 5597 5596 5593 5591 5589 5587 5586 5585 5584 5583 5581 5579 5577 5575 5574 5572 5570 5569 5567 5565 5563
5609 5608 5609 5610 5611 5611 5612 5612 5611 5610 5609 5608 5608 5608 5608 5607 5606 5603 5601 5599 5598 5595 5592 5589 5588 5586 5584 5582 5581 5580 5579 5578 5576 5575 5573 5571 5569 5567 5566 5564 5562 5560 5559 5557
5604 5604 5604 5604 5605 5605 5605 5605 5603 5603 5602 5601 5600 5600 5599 5599 5597 5595 5594 5591 5589 5586 5584 5582 5581 5579 5577 5576 5575 5573 5572 5571 5570 5568 5566 5564 5563 5561 5559 5557 5555 5552 5550 5548